Location: Gad�tanya
(48.0500°N, 20.8500°E)
Time: 11:08:32
(UTC+00:00)

Cosmos 1606 - Pass Details

Date: 05 July 2020
Orbit: 504 x 527 km, 82.5° (Epoch: 14 August)

Event Time Altitude Azimuth Distance (km) Brightness Sun altitude
Rises 21:10:01 0° 0° (N) 2,665 7.6 -16.4°
Reaches altitude 10° 21:12:26 10° 14° (NNE) 1,774 6.2 -16.5°
Maximum altitude 21:15:44 26° 72° (ENE) 1,077 4.3 -16.7°
Enters shadow 21:17:09 21° 105° (ESE) 1,239 4.3 -16.8°
